Regional Weather Roundup
Issued by NWS

Home | Current Version | Previous Version | Text Only | Print | Product List | Glossary Off
Versions: 1 2 3 4 5 6 7 8 9 10 11 12 13 14 15 16 17 18 19 20 21 22 23 24 25 26 27 28 29 30 31 32 33 34 35 36 37 38 39 40 41 42 43 44 45 46 47 48 49 50

000
ASUS43 KMKX 180259
RWRWI

WISCONSIN REGIONAL WEATHER ROUNDUP
NATIONAL WEATHER SERVICE MILWAUKEE/SULLIVAN WI
900 PM CST FRI NOV 17 2017

NOTE: "FAIR" INDICATES FEW OR NO CLOUDS BELOW 12,000 FEET WITH NO
SIGNIFICANT WEATHER AND/OR OBSTRUCTIONS TO VISIBILITY.

WIZ001-002-006>008-014>016-023>028-180400-
NORTHWEST WISCONSIN

CITY           SKY/WX    TMP DP  RH WIND       PRES   REMARKS
SUPERIOR ARPT  CLOUDY    33  33 100 N3        29.66F
ASHLAND        CLOUDY    32  31  96 SW3       29.64F FOG
HAYWARD        FOG       33  32  96 CALM      29.63S VSB 1/2
SIREN          FOG       34  33  98 N3        29.65S VSB 3/4
CUMBERLAND     FOG       32  32 100 CALM      29.62F VSB 1/2
RICE LAKE      FOG       34  34 100 N3        29.64F VSB 1/2
CHETEK         FOG       34  34 100 CALM      29.64R VSB 1
LADYSMITH      FOG       34  34  99 N5        29.63F VSB 1/2 WCI  30
EAU CLAIRE     NOT AVBL
MENOMONIE      CLOUDY    36  36 100 NW6       29.64R FOG     WCI  31
NEW RICHMOND   CLOUDY    35  35 100 N5        29.64F FOG     WCI  31
OSCEOLA        FOG       36  36 100 NE5       29.67F VSB 1   WCI  32
$$

WIZ003>005-009-010-017-018-180400-
NORTH CENTRAL WISCONSIN

CITY           SKY/WX    TMP DP  RH WIND       PRES   REMARKS
MANITOWISH WTR CLOUDY    32  32 100 CALM      29.60F FOG
ARBOR VITAE    CLOUDY    34  33  96 CALM      29.60F FOG
WOODRUFF       CLOUDY    34  33  96 CALM      29.60F FOG
RHINELANDER    CLOUDY    33  33 100 CALM      29.60S FOG
EAGLE RIVER    MIX PCPN  32  32 100 CALM      29.59F
LAND O LAKES   CLOUDY    33  33 100 CALM      29.62F FOG
PHILLIPS       CLOUDY    32  32 100 CALM      29.62S FOG
TOMAHAWK       CLOUDY    32  31  96 CALM      29.62R FOG
MEDFORD        FOG       32  32 100 CALM      29.59F VSB 1/2
MERRILL        CLOUDY    33  33 100 CALM      29.62F FOG
$$

WIZ029-030-035-036-043>047-180400-
CENTRAL WISCONSIN

CITY           SKY/WX    TMP DP  RH WIND       PRES   REMARKS
WAUSAU         CLOUDY    34  34 100 CALM      29.59F FOG
MOSINEE        CLOUDY    34  34 100 CALM      29.61F FOG
MARSHFIELD     CLOUDY    35  33  92 CALM      29.59F FOG
STEVENS POINT  DRIZZLE   33  33 100 CALM      29.61F
WAUPACA        CLOUDY    38  37  95 CALM      29.62F FOG
WAUTOMA        CLOUDY    36  36 100 CALM      29.62S FOG
WISC RAPIDS    CLOUDY    36  35  96 CALM      29.61F FOG
CAMP DOUGLAS   CLOUDY    36  36 100 CALM      29.60S FOG
$$

WIZ011>013-019>022-031-037>040-048>050-180400-
NORTHEAST WISCONSIN

CITY           SKY/WX    TMP DP  RH WIND       PRES   REMARKS
ANTIGO         MIX PCPN  32  32 100 CALM      29.59F
SHAWANO        CLOUDY    37  36  94 CALM      29.63F FOG
OCONTO         CLOUDY    37  37  99 CALM      29.63S
STURGEON BAY   LGT RAIN  39  38  96 W5        29.63F FOG
GREEN BAY      RAIN      38  38 100 CALM      29.63S FOG
MANITOWOC      RAIN      40  39  97 W3        29.62  FOG
APPLETON       LGT RAIN  37  37 100 CALM      29.60S
CLINTONVILLE   CLOUDY    37  36  93 CALM      29.63S FOG
OSHKOSH        LGT RAIN  38  38 100 CALM      29.61S FOG
$$

WIZ032>034-041-042-053>061-180400-
SOUTHWEST WISCONSIN

CITY           SKY/WX    TMP DP  RH WIND       PRES   REMARKS
LA CROSSE      CLOUDY    39  38  96 CALM      29.62R FOG
SPARTA         DRIZZLE   35  35 100 CALM      29.62S
VIROQUA        CLOUDY    36  36 100 CALM      29.59S VSB 3/4
BOSCOBEL       CLOUDY    39  38  96 CALM      29.60F FOG
PRAIRIE DU CHI CLOUDY    38  37  97 CALM      29.59F FOG
PLATTEVILLE    CLOUDY    40  40 100 CALM      29.60S VSB 1/2
$$

WIZ056-057-062-063-064-067-068-180400-
SOUTH CENTRAL WISCONSIN

CITY           SKY/WX    TMP DP  RH WIND       PRES   REMARKS
REEDSBURG      CLOUDY    37  37 100 CALM      29.60F FOG
BARABOO/DELLS  FOG       37  36  98 CALM      29.60S VSB 1
LONE ROCK      FOG       39  39 100 CALM      29.60F VSB 1
MINERAL POINT  LGT RAIN  39  39 100 CALM      29.58F VSB 1/2
MADISON        CLOUDY    40  39  97 CALM      29.59F FOG
MIDDLETON      CLOUDY    40  40 100 CALM      29.60F
WATERTOWN      DRIZZLE   39  39 100 CALM      29.60F
MONROE         DRIZZLE   37  37 100 CALM      29.58S
JANESVILLE     DRIZZLE   43  43 100 SW5       29.58F
$$

WIZ051-052-058>065-066-070>072-180400-
SOUTHEAST WISCONSIN

CITY           SKY/WX    TMP DP  RH WIND       PRES   REMARKS
MILWAUKEE      LGT RAIN  43  42  97 CALM      29.60F FOG
WAUKESHA       DRIZZLE   37  37 100 CALM      29.61S FOG
MILWAUKEE/TIMM DRIZZLE   39  37  93 CALM      29.61F
RACINE         LGT RAIN  43  42  97 SW6       29.61F FOG
BURLINGTON     DRIZZLE   44  44 100 SW5       29.59F
KENOSHA        LGT RAIN  44  41  89 SW7       29.59F FOG
FOND DU LAC    LGT RAIN  40  37  89 NW3       29.61S
SHEBOYGAN      CLOUDY    40  40 100 SW5       29.61F FOG
WEST BEND      DRIZZLE   37  37 100 CALM      29.60F
JUNEAU         DRIZZLE   38  37  99 CALM      29.61F
$$

LSZ147-162-180400-
LAKE SUPERIOR

STATION/POSITION TIME  TEMP    WIND        PRES    WAVE
                       AIR SEA DIR/SP/G            HT/PER
                 (UTC) (F)     (DEG/KT/KT) (MB)    (FT/S)
DEVILS ISLAND    0200   38     290/ 11/ 12 1005.0R
SAXON HARBOR     0240   33      CALM  /  1 1003.4F
$$

LMZ867-665-643>646-180400-
LAKE MICHIGAN

STATION/POSITION TIME  TEMP    WIND        PRES    WAVE
                       AIR SEA DIR/SP/G            HT/PER
                 (UTC) (F)     (DEG/KT/KT) (MB)    (FT/S)
N MID LAKE BUOY  0050   43 48  180/ 21/ 23 1005.3F   9/ 8
NORTHPORT PIER   0240   40     250/  3/  6 1003.4R
SHEBOYGAN LAKESH 0200   41     210/ 12/ 15 1003.3F
PORT WASHINGTON  0240   41     200/  3/  3 1003.7F
MILWAUKEE LAKESH 0230   42     220/  6/  7   N/A
S MID LAKE BUOY  0150   46 50  170/ 25/ 29 1003.1F   6/ 6
KENOSHA   LAKESH 0200   43     200/  8/ 12 1002.7
$$

TC  - TEMPERATURE IN CELSIUS
VSB - VISIBILITY IN STATUTE MILES
WCI - WIND CHILL INDEX
HX  - HEAT INDEX





USA.gov is the U.S. government's official web portal to all federal, state and local government web resources and services.